Lincoln, NE

11:57 PM CST on December 09, 2019 (GMT -0600)
Lincoln Municipal

Weather History for KLNK - November, 2019

Change the Weather History Date:

Tuesday, November 12, 2019

  Actual Average Record
Temperature  
Mean Temperature 17 °F 41 °F  
Max Temperature 31 °F 52 °F 74 °F (1952)
Min Temperature 2 °F 29 °F 2 °F (1911)
Degree Days  
Heating Degree Days 48 24  
Month to date heating degree days 367 255  
Since 1 July heating degree days 878 734  
Cooling Degree Days 0 0  
Month to date cooling degree days 0 0  
Year to date cooling degree days 1332 1173  
Moisture  
Dew Point 6 °F    
Average Humidity 65    
Maximum Humidity 87    
Minimum Humidity 42    
Precipitation  
Precipitation 0.00 in 0.04 in 2.42 in (1909)
Month to date precipitation 0.11 0.63  
Year to date precipitation 32.86 27.20  
Snow  
Snow 0.00 in 0.00 in 0.50 in (1983)
Month to date snowfall 2.0 0.5  
Since 1 July snowfall 2.7 1.2  
Since 1 September snowfall 2.7 1.2  
Snow Depth T in    
Sea Level Pressure  
Sea Level Pressure 30.44 in    
Wind  
Wind Speed 13 mph (South)    
Max Wind Speed 25 mph    
Max Gust Speed 33 mph    
Visibility 10 miles    
Events      
T = Trace of Precipitation, MM = Missing Value Source: NWS Daily Summary

Daily Weather History Graph

Daily Weather History Graph

Search for Another Location

Airport or City:

Astronomy

Nov. 12, 2019 Rise Set
Actual Time 7:10 AM CST 5:11 PM CST
Civil Twilight 6:41 AM CST 5:40 PM CST
Nautical Twilight 6:08 AM CST 6:13 PM CST
Astronomical Twilight 5:35 AM CST 6:45 PM CST
Moon 5:39 PM CST (11/12) 7:02 AM CST (11/12)
Length of Visible Light 10h 59m
Length of Day
10h 01m
Full, 100% of the Moon is Illuminated
Nov 12
Full
Nov 19
Last Quarter
Nov 26
New
Dec 4
First Quarter
Dec 11
Full

Hourly Weather History & Observations

Time (CST) Temp. Windchill Dew Point Humidity Pressure Visibility Wind Dir Wind Speed Gust Speed Precip Events Conditions
12:54 AM 5.0 °F -2.1 °F -0.0 °F 80% 30.78 in 10.0 mi NNW 3.5 mph - N/A   Clear
1:54 AM 3.9 °F - -0.9 °F 80% 30.76 in 10.0 mi Calm Calm - N/A   Clear
2:54 AM 7.0 °F 0.1 °F 1.9 °F 80% 30.75 in 10.0 mi West 3.5 mph - N/A   Clear
3:54 AM 6.1 °F - 1.0 °F 80% 30.73 in 10.0 mi Calm Calm - N/A   Clear
5:54 AM 5.0 °F -2.1 °F -0.0 °F 80% 30.71 in 10.0 mi SSW 3.5 mph - N/A   Clear
6:54 AM 1.9 °F -10.6 °F -2.0 °F 83% 30.69 in 10.0 mi South 6.9 mph - N/A   Clear
7:54 AM 6.1 °F -4.3 °F 1.9 °F 83% 30.67 in 10.0 mi SSE 5.8 mph - N/A   Clear
8:54 AM 12.9 °F 0.7 °F 7.0 °F 77% 30.65 in 10.0 mi SSW 9.2 mph - N/A   Clear
9:54 AM 18.0 °F 3.6 °F 8.1 °F 65% 30.61 in 10.0 mi SSW 15.0 mph - N/A   Clear
11:54 AM 25.0 °F 10.6 °F 8.1 °F 49% 30.50 in 10.0 mi SSW 20.7 mph - N/A   Clear
12:54 PM 27.0 °F 13.5 °F 10.9 °F 51% 30.43 in 10.0 mi South 19.6 mph - N/A   Clear
1:54 PM 28.9 °F 15.1 °F 10.9 °F 47% 30.38 in 10.0 mi South 23.0 mph 32.2 mph N/A   Clear
2:54 PM 28.0 °F 13.9 °F 10.9 °F 49% 30.34 in 10.0 mi South 23.0 mph 31.1 mph N/A   Clear
3:54 PM 28.9 °F 15.8 °F 10.9 °F 47% 30.30 in 10.0 mi South 20.7 mph 29.9 mph N/A   Clear
4:54 PM 27.0 °F 13.9 °F 10.0 °F 49% 30.27 in 10.0 mi South 18.4 mph - N/A   Clear
5:54 PM 26.1 °F 14.0 °F 10.0 °F 51% 30.24 in 10.0 mi South 15.0 mph - N/A   Clear
6:54 PM 25.0 °F 12.6 °F 10.0 °F 53% 30.22 in 10.0 mi South 15.0 mph - N/A   Clear
7:54 PM 26.1 °F 13.1 °F 8.1 °F 47% 30.17 in 10.0 mi South 17.3 mph 27.6 mph N/A   Clear
8:54 PM 28.0 °F 14.9 °F 8.1 °F 43% 30.14 in 10.0 mi South 19.6 mph 27.6 mph N/A   Clear
9:54 PM 28.0 °F 14.9 °F 8.1 °F 43% 30.11 in 10.0 mi SSW 19.6 mph 28.8 mph N/A   Clear
10:54 PM 27.0 °F 13.9 °F 8.1 °F 45% 30.08 in 10.0 mi South 18.4 mph 25.3 mph N/A   Clear
11:54 PM 27.0 °F 15.6 °F 8.1 °F 45% 30.06 in 10.0 mi South 13.8 mph - N/A   Clear